User: anonymous   Login
Location: Central Coast
(33.3208°S, 151.2336°E)
Time: 17:13:22
(UTC+11:00)
Language:

Envisat - Orbit

View from above orbital plane
View from above orbital plane
View from above satellite
View from above satellite

Ground track
Ground track

The orbit data is extracted from the following two-line orbital elements,

1 27386U 02009A   18021.81691213 -.00000011  00000-0  10071-4 0  9996
2 27386  98.2043  62.6310 0001429  82.2837 277.8498 14.37913570832499
Epoch (UTC): 21 January 2018 19:36:21
Eccentricity: 0.0001429
inclination: 98.2043°
perigee height: 764 km
apogee height: 766 km
right ascension of ascending node: 62.6310°
argument of perigee: 82.2837°
revolutions per day: 14.37913570
mean anomaly at epoch: 277.8498°
orbit number at epoch: 83249

The dashed part of the orbit path shows where the satellite is in the earth's shadow,  

DLR